UAL1436 KMSO-KDEN

Flight info

Callsign UAL1436
Flight time 1h 29m
Altitude 17000
Route GRZLY4 MSO V86 CPN/N0447F370 TOFUU FLATI5
Aircraft B738/M-SDE2E3FGHIRWXY/LB1

Departure

Time 2026-05-07 18:11
Airport Missoula Montana Airport (KMSO)

Arrival

Time 2026-05-07 19:41
Airport Denver International Airport (KDEN)
Time Latitude Longitude Altitude Speed Heading
2026-05-07 17:55 46.91811 -114.08422 3204 ft 0 kts 53°
2026-05-07 18:04 46.91799 -114.08444 3193 ft 4 kts 53°
2026-05-07 18:05 46.91785 -114.08472 3199 ft 4 kts 54°
2026-05-07 18:05 46.91775 -114.08504 3204 ft 4 kts 98°
2026-05-07 18:05 46.91785 -114.08536 3204 ft 2 kts 130°
2026-05-07 18:05 46.91786 -114.08538 3197 ft 1 kts 130°
2026-05-07 18:08 46.91782 -114.08531 3203 ft 4 kts 130°
2026-05-07 18:08 46.91745 -114.08463 3204 ft 13 kts 130°
2026-05-07 18:08 46.91667 -114.08331 3200 ft 21 kts 130°
2026-05-07 18:08 46.91561 -114.08177 3205 ft 19 kts 166°
2026-05-07 18:09 46.91448 -114.08274 3203 ft 19 kts 220°
2026-05-07 18:09 46.91335 -114.08313 3201 ft 19 kts 135°
2026-05-07 18:09 46.91238 -114.08147 3205 ft 24 kts 132°
2026-05-07 18:09 46.91120 -114.07949 3201 ft 28 kts 131°
2026-05-07 18:10 46.90982 -114.07806 3202 ft 25 kts 202°
2026-05-07 18:10 46.90931 -114.08012 3206 ft 34 kts 310°
2026-05-07 18:10 46.91236 -114.08534 3201 ft 102 kts 310°
2026-05-07 18:10 46.91828 -114.09537 3205 ft 156 kts 310°
2026-05-07 18:11 46.92586 -114.10857 3656 ft 178 kts 309°
2026-05-07 18:11 46.93136 -114.11839 4023 ft 195 kts 310°
2026-05-07 18:11 46.94361 -114.13913 4821 ft 205 kts 311°
2026-05-07 18:11 46.95291 -114.15458 5570 ft 199 kts 310°
2026-05-07 18:12 46.96238 -114.16942 6215 ft 203 kts 311°
2026-05-07 18:12 46.97241 -114.18508 6629 ft 215 kts 311°
2026-05-07 18:12 46.98268 -114.20156 7239 ft 220 kts 308°
2026-05-07 18:12 46.98988 -114.22055 8149 ft 210 kts 285°
2026-05-07 18:13 46.99061 -114.24213 8830 ft 216 kts 260°
2026-05-07 18:13 46.98458 -114.26198 9569 ft 222 kts 235°
2026-05-07 18:13 46.97265 -114.27719 10116 ft 236 kts 210°
2026-05-07 18:13 46.95623 -114.28299 10527 ft 259 kts 181°
2026-05-07 18:14 46.93803 -114.27554 10702 ft 289 kts 149°
2026-05-07 18:14 46.92298 -114.25458 10895 ft 313 kts 121°
2026-05-07 18:14 46.91477 -114.22414 11084 ft 334 kts 97°
2026-05-07 18:14 46.91314 -114.18925 11350 ft 353 kts 90°
2026-05-07 18:15 46.91200 -114.15297 11929 ft 361 kts 92°
2026-05-07 18:15 46.91008 -114.11619 12688 ft 364 kts 95°
2026-05-07 18:15 46.90318 -114.08047 13427 ft 370 kts 118°
2026-05-07 18:15 46.88787 -114.05023 14184 ft 373 kts 133°
2026-05-07 18:16 46.86985 -114.02247 14811 ft 380 kts 134°
2026-05-07 18:16 46.85135 -113.99458 15465 ft 385 kts 134°
2026-05-07 18:16 46.83267 -113.96622 16186 ft 388 kts 134°
2026-05-07 18:16 46.81400 -113.93746 16899 ft 393 kts 133°
2026-05-07 18:17 46.79519 -113.90819 17597 ft 398 kts 133°
2026-05-07 18:17 46.77618 -113.87859 18273 ft 402 kts 133°
2026-05-07 18:17 46.75696 -113.84857 18834 ft 408 kts 133°
2026-05-07 18:17 46.73710 -113.81874 19359 ft 412 kts 133°
2026-05-07 18:18 46.71752 -113.78780 19882 ft 418 kts 131°
2026-05-07 18:18 46.69766 -113.75651 20412 ft 423 kts 133°
2026-05-07 18:18 46.67747 -113.72499 20919 ft 428 kts 133°
2026-05-07 18:18 46.65682 -113.69327 21396 ft 434 kts 135°
2026-05-07 18:19 46.63568 -113.66163 21892 ft 439 kts 133°
2026-05-07 18:19 46.61464 -113.62914 22430 ft 444 kts 133°
2026-05-07 18:19 46.59363 -113.59666 22972 ft 448 kts 133°
2026-05-07 18:19 46.57189 -113.56305 23486 ft 453 kts 133°
2026-05-07 18:20 46.55001 -113.52983 23884 ft 456 kts 133°
2026-05-07 18:20 46.52837 -113.49670 24300 ft 460 kts 133°
2026-05-07 18:20 46.50601 -113.46237 24723 ft 464 kts 133°
2026-05-07 18:20 46.48371 -113.42824 25155 ft 466 kts 133°
2026-05-07 18:21 46.46136 -113.39413 25592 ft 469 kts 133°
2026-05-07 18:21 46.43879 -113.35977 25990 ft 472 kts 133°
2026-05-07 18:21 46.41602 -113.32515 26377 ft 476 kts 133°
2026-05-07 18:21 46.39336 -113.29072 26759 ft 479 kts 133°
2026-05-07 18:22 46.37031 -113.25573 27208 ft 481 kts 133°
2026-05-07 18:22 46.35469 -113.23204 27504 ft 483 kts 133°
2026-05-07 18:22 46.32384 -113.18533 28028 ft 487 kts 133°
2026-05-07 18:22 46.30033 -113.14976 28375 ft 490 kts 133°
2026-05-07 18:23 46.27667 -113.11401 28717 ft 494 kts 133°
2026-05-07 18:23 46.25284 -113.07803 29077 ft 496 kts 134°
2026-05-07 18:23 46.22893 -113.04201 29465 ft 498 kts 134°
2026-05-07 18:23 46.20484 -113.00576 29832 ft 500 kts 134°
2026-05-07 18:24 46.18116 -112.97028 30129 ft 503 kts 134°
2026-05-07 18:24 46.15678 -112.93385 30412 ft 506 kts 134°
2026-05-07 18:24 46.13226 -112.89727 30645 ft 509 kts 134°
2026-05-07 18:24 46.10755 -112.86044 30890 ft 512 kts 134°
2026-05-07 18:25 46.08273 -112.82346 31112 ft 515 kts 134°
2026-05-07 18:25 46.05781 -112.78637 31458 ft 515 kts 135°
2026-05-07 18:25 46.03291 -112.74942 31912 ft 513 kts 135°
2026-05-07 18:25 46.00749 -112.71354 32292 ft 512 kts 137°
2026-05-07 18:26 45.98147 -112.67862 32581 ft 513 kts 139°
2026-05-07 18:26 45.95503 -112.64404 32881 ft 514 kts 139°
2026-05-07 18:26 45.92854 -112.60965 33194 ft 514 kts 140°
2026-05-07 18:26 45.90202 -112.57522 33436 ft 516 kts 140°
2026-05-07 18:27 45.87540 -112.54050 33692 ft 517 kts 139°
2026-05-07 18:27 45.84882 -112.50567 33984 ft 518 kts 139°
2026-05-07 18:27 45.82220 -112.47068 34391 ft 517 kts 139°
2026-05-07 18:27 45.80470 -112.44766 34590 ft 516 kts 139°
2026-05-07 18:28 45.76929 -112.40100 34905 ft 516 kts 139°
2026-05-07 18:28 45.74289 -112.36625 35192 ft 517 kts 139°
2026-05-07 18:28 45.71634 -112.33148 35425 ft 517 kts 139°
2026-05-07 18:28 45.68983 -112.29685 35729 ft 517 kts 139°
2026-05-07 18:29 45.66361 -112.26264 36026 ft 516 kts 139°
2026-05-07 18:29 45.63679 -112.22768 36355 ft 514 kts 139°
2026-05-07 18:29 45.61036 -112.19327 36676 ft 513 kts 139°
2026-05-07 18:29 45.58437 -112.15940 36936 ft 513 kts 139°
2026-05-07 18:30 45.55796 -112.12509 37036 ft 516 kts 139°
2026-05-07 18:30 45.50454 -112.05608 37026 ft 519 kts 139°
2026-05-07 18:31 45.45206 -111.98819 36959 ft 511 kts 139°
2026-05-07 18:31 45.39962 -111.92023 36930 ft 509 kts 139°
2026-05-07 18:32 45.35556 -111.86361 36942 ft 510 kts 139°
2026-05-07 18:32 45.30276 -111.79586 36953 ft 512 kts 139°
2026-05-07 18:33 45.25015 -111.72849 36949 ft 514 kts 139°
2026-05-07 18:33 45.19689 -111.66048 37006 ft 516 kts 139°
2026-05-07 18:34 45.14332 -111.59225 36971 ft 519 kts 139°
2026-05-07 18:34 45.08948 -111.52384 36981 ft 521 kts 139°
2026-05-07 18:35 45.03540 -111.45547 36984 ft 519 kts 139°
2026-05-07 18:35 44.98201 -111.38754 36938 ft 512 kts 139°
2026-05-07 18:36 44.92895 -111.32068 36993 ft 512 kts 139°
2026-05-07 18:36 44.87549 -111.25371 37035 ft 517 kts 140°
2026-05-07 18:37 44.82171 -111.18638 37064 ft 517 kts 139°
2026-05-07 18:37 44.76790 -111.11902 37072 ft 518 kts 140°
2026-05-07 18:38 44.71398 -111.05178 37082 ft 518 kts 140°
2026-05-07 18:38 44.66091 -110.98576 37083 ft 518 kts 140°
2026-05-07 18:39 44.60688 -110.91871 37048 ft 518 kts 140°
2026-05-07 18:39 44.55287 -110.85185 37032 ft 518 kts 140°
2026-05-07 18:40 44.49879 -110.78510 37028 ft 518 kts 140°
2026-05-07 18:40 44.44498 -110.71884 36979 ft 518 kts 140°
2026-05-07 18:41 44.39085 -110.65234 36987 ft 517 kts 140°
2026-05-07 18:41 44.33672 -110.58600 37037 ft 517 kts 140°
2026-05-07 18:42 44.28248 -110.51971 37014 ft 519 kts 140°
2026-05-07 18:42 44.22799 -110.45339 37012 ft 520 kts 140°
2026-05-07 18:43 44.17344 -110.38705 37010 ft 520 kts 140°
2026-05-07 18:43 44.11896 -110.32096 36984 ft 519 kts 140°
2026-05-07 18:44 44.06457 -110.25533 37012 ft 518 kts 140°
2026-05-07 18:44 44.01010 -110.18954 37027 ft 517 kts 140°
2026-05-07 18:45 43.95580 -110.12414 37031 ft 517 kts 140°
2026-05-07 18:45 43.90167 -110.05897 37021 ft 519 kts 140°
2026-05-07 18:46 43.84766 -109.99428 37033 ft 520 kts 140°
2026-05-07 18:46 43.79290 -109.92905 37026 ft 518 kts 140°
2026-05-07 18:47 43.73821 -109.86391 37030 ft 518 kts 140°
2026-05-07 18:47 43.68357 -109.79894 37004 ft 518 kts 140°
2026-05-07 18:48 43.62881 -109.73402 36996 ft 518 kts 140°
2026-05-07 18:48 43.57446 -109.66974 36996 ft 518 kts 140°
2026-05-07 18:49 43.51941 -109.60479 37001 ft 517 kts 140°
2026-05-07 18:49 43.46489 -109.54064 36993 ft 519 kts 140°
2026-05-07 18:50 43.40994 -109.47610 36987 ft 520 kts 140°
2026-05-07 18:50 43.35492 -109.41167 36978 ft 520 kts 140°
2026-05-07 18:51 43.29973 -109.34724 36931 ft 520 kts 140°
2026-05-07 18:51 43.24472 -109.28315 36947 ft 518 kts 140°
2026-05-07 18:52 43.18970 -109.21920 36917 ft 519 kts 140°
2026-05-07 18:52 43.13457 -109.15531 36927 ft 519 kts 140°
2026-05-07 18:53 43.07949 -109.09160 36919 ft 518 kts 140°
2026-05-07 18:53 43.02442 -109.02802 36906 ft 518 kts 140°
2026-05-07 18:54 42.97003 -108.96542 36885 ft 517 kts 140°
2026-05-07 18:54 42.91500 -108.90224 36904 ft 517 kts 140°
2026-05-07 18:55 42.85988 -108.83910 36895 ft 517 kts 140°
2026-05-07 18:55 42.80480 -108.77616 36938 ft 516 kts 140°
2026-05-07 18:56 42.74963 -108.71325 37015 ft 518 kts 140°
2026-05-07 18:56 42.69437 -108.65042 36998 ft 518 kts 140°
2026-05-07 18:57 42.63933 -108.58797 36964 ft 518 kts 140°
2026-05-07 18:57 42.58399 -108.52533 36946 ft 518 kts 140°
2026-05-07 18:58 42.52854 -108.46271 36930 ft 518 kts 140°
2026-05-07 18:58 42.47308 -108.40024 36944 ft 518 kts 140°
2026-05-07 18:59 42.41766 -108.33796 36929 ft 518 kts 140°
2026-05-07 18:59 42.36223 -108.27582 36925 ft 517 kts 140°
2026-05-07 19:00 42.30685 -108.21388 36927 ft 516 kts 140°
2026-05-07 19:00 42.25147 -108.15209 36928 ft 515 kts 140°
2026-05-07 19:01 42.19650 -108.09089 36944 ft 515 kts 140°
2026-05-07 19:01 42.14123 -108.02950 36930 ft 515 kts 140°
2026-05-07 19:02 42.08655 -107.96891 36925 ft 514 kts 140°
2026-05-07 19:02 42.03125 -107.90778 36940 ft 514 kts 140°
2026-05-07 19:03 41.97592 -107.84674 36936 ft 514 kts 140°
2026-05-07 19:03 41.92054 -107.78580 36938 ft 514 kts 140°
2026-05-07 19:04 41.86503 -107.72483 36980 ft 515 kts 140°
2026-05-07 19:04 41.80970 -107.66373 36967 ft 515 kts 137°
2026-05-07 19:05 41.76095 -107.59459 36993 ft 513 kts 129°
2026-05-07 19:05 41.71459 -107.52190 37015 ft 513 kts 129°
2026-05-07 19:06 41.66753 -107.45003 37007 ft 513 kts 130°
2026-05-07 19:06 41.59584 -107.34375 37032 ft 512 kts 131°
2026-05-07 19:07 41.54801 -107.27318 37008 ft 512 kts 131°
2026-05-07 19:07 41.50020 -107.20265 37012 ft 511 kts 131°
2026-05-07 19:08 41.45246 -107.13234 37011 ft 511 kts 131°
2026-05-07 19:08 41.40468 -107.06219 37004 ft 511 kts 131°
2026-05-07 19:09 41.38065 -107.02696 36774 ft 514 kts 131°
2026-05-07 19:09 41.35760 -106.99319 36525 ft 512 kts 131°
2026-05-07 19:09 41.33365 -106.95814 36263 ft 511 kts 131°
2026-05-07 19:09 41.30972 -106.92316 36012 ft 511 kts 131°
2026-05-07 19:10 41.28577 -106.88819 35749 ft 511 kts 131°
2026-05-07 19:10 41.26180 -106.85321 35574 ft 512 kts 131°
2026-05-07 19:10 41.23780 -106.81825 35327 ft 512 kts 131°
2026-05-07 19:10 41.21378 -106.78329 35080 ft 513 kts 131°
2026-05-07 19:11 41.18974 -106.74834 34840 ft 513 kts 131°
2026-05-07 19:11 41.16560 -106.71329 34567 ft 514 kts 131°
2026-05-07 19:11 41.14143 -106.67823 34382 ft 515 kts 131°
2026-05-07 19:11 41.11720 -106.64315 34134 ft 516 kts 131°
2026-05-07 19:12 41.09299 -106.60811 33858 ft 517 kts 131°
2026-05-07 19:12 41.06869 -106.57299 33616 ft 517 kts 131°
2026-05-07 19:12 41.04433 -106.53784 33342 ft 517 kts 131°
2026-05-07 19:12 41.01997 -106.50270 33081 ft 517 kts 131°
2026-05-07 19:13 40.99565 -106.46768 32794 ft 517 kts 131°
2026-05-07 19:13 40.97131 -106.43266 32530 ft 516 kts 131°
2026-05-07 19:13 40.94698 -106.39767 32275 ft 516 kts 131°
2026-05-07 19:13 40.92268 -106.36281 32036 ft 515 kts 131°
2026-05-07 19:14 40.89871 -106.32847 31806 ft 514 kts 131°
2026-05-07 19:14 40.87447 -106.29376 31564 ft 513 kts 131°
2026-05-07 19:14 40.85052 -106.25896 31237 ft 509 kts 128°
2026-05-07 19:14 40.83182 -106.21997 30752 ft 498 kts 111°
2026-05-07 19:15 40.81783 -106.17844 30328 ft 492 kts 110°
2026-05-07 19:15 40.80400 -106.13715 29812 ft 489 kts 110°
2026-05-07 19:15 40.79006 -106.09641 29291 ft 486 kts 111°
2026-05-07 19:15 40.77596 -106.05613 28766 ft 482 kts 112°
2026-05-07 19:16 40.76635 -106.02906 28440 ft 479 kts 112°
2026-05-07 19:16 40.75265 -105.99066 27966 ft 475 kts 112°
2026-05-07 19:16 40.73862 -105.95143 27508 ft 471 kts 112°
2026-05-07 19:16 40.72487 -105.91299 27007 ft 467 kts 112°
2026-05-07 19:17 40.71105 -105.87442 26595 ft 462 kts 113°
2026-05-07 19:17 40.69736 -105.83630 26212 ft 458 kts 113°
2026-05-07 19:17 40.68373 -105.79839 25788 ft 455 kts 113°
2026-05-07 19:17 40.67024 -105.76096 25385 ft 450 kts 113°
2026-05-07 19:18 40.65691 -105.72393 24995 ft 446 kts 113°
2026-05-07 19:18 40.64366 -105.68711 24609 ft 442 kts 113°
2026-05-07 19:18 40.63045 -105.65052 24222 ft 441 kts 113°
2026-05-07 19:18 40.61727 -105.61406 23823 ft 440 kts 115°
2026-05-07 19:19 40.60418 -105.57797 23375 ft 436 kts 115°
2026-05-07 19:19 40.59115 -105.54207 22947 ft 431 kts 115°
2026-05-07 19:19 40.57828 -105.50661 22547 ft 428 kts 115°
2026-05-07 19:19 40.56551 -105.47144 22115 ft 424 kts 115°
2026-05-07 19:20 40.55289 -105.43674 21762 ft 418 kts 115°
2026-05-07 19:20 40.54039 -105.40244 21385 ft 413 kts 115°
2026-05-07 19:20 40.52807 -105.36871 21016 ft 408 kts 115°
2026-05-07 19:20 40.51585 -105.33527 20641 ft 403 kts 115°
2026-05-07 19:21 40.50376 -105.30219 20296 ft 399 kts 115°
2026-05-07 19:21 40.49183 -105.26957 19980 ft 395 kts 115°
2026-05-07 19:21 40.47996 -105.23716 19629 ft 391 kts 115°
2026-05-07 19:21 40.46819 -105.20511 19289 ft 388 kts 116°
2026-05-07 19:22 40.45344 -105.17575 18937 ft 384 kts 136°
2026-05-07 19:22 40.43291 -105.15396 18709 ft 376 kts 146°
2026-05-07 19:22 40.41194 -105.13469 18424 ft 371 kts 147°
2026-05-07 19:22 40.39052 -105.11543 18143 ft 366 kts 147°
2026-05-07 19:23 40.36970 -105.09657 17837 ft 361 kts 147°
2026-05-07 19:23 40.34923 -105.07785 17547 ft 356 kts 147°
2026-05-07 19:23 40.32907 -105.05927 17270 ft 352 kts 147°
2026-05-07 19:23 40.30918 -105.04088 16985 ft 348 kts 147°
2026-05-07 19:24 40.28948 -105.02263 16718 ft 345 kts 147°
2026-05-07 19:24 40.26996 -105.00456 16493 ft 343 kts 147°
2026-05-07 19:24 40.25133 -104.98732 16178 ft 341 kts 147°
2026-05-07 19:24 40.23175 -104.96923 15929 ft 340 kts 147°
2026-05-07 19:25 40.21251 -104.95144 15686 ft 338 kts 147°
2026-05-07 19:25 40.19357 -104.93396 15434 ft 337 kts 147°
2026-05-07 19:25 40.17380 -104.91748 15224 ft 335 kts 156°
2026-05-07 19:25 40.15261 -104.90509 14958 ft 333 kts 161°
2026-05-07 19:26 40.13109 -104.89387 14713 ft 333 kts 161°
2026-05-07 19:26 40.10964 -104.88256 14460 ft 333 kts 161°
2026-05-07 19:26 40.08839 -104.87094 14220 ft 333 kts 160°
2026-05-07 19:26 40.06710 -104.85906 14018 ft 333 kts 160°
2026-05-07 19:27 40.04580 -104.84708 13765 ft 333 kts 159°
2026-05-07 19:27 40.02460 -104.83499 13518 ft 333 kts 159°
2026-05-07 19:27 40.00336 -104.82282 13271 ft 333 kts 159°
2026-05-07 19:27 39.98228 -104.81079 13022 ft 331 kts 160°
2026-05-07 19:28 39.96026 -104.80363 12757 ft 322 kts 183°
2026-05-07 19:28 39.93814 -104.80413 12550 ft 315 kts 186°
2026-05-07 19:28 39.91644 -104.80502 12325 ft 310 kts 186°
2026-05-07 19:28 39.89531 -104.80583 12104 ft 305 kts 186°
2026-05-07 19:29 39.87423 -104.80654 11884 ft 301 kts 186°
2026-05-07 19:29 39.85344 -104.80717 11665 ft 296 kts 186°
2026-05-07 19:29 39.83295 -104.80774 11454 ft 292 kts 186°
2026-05-07 19:29 39.81271 -104.80828 11235 ft 289 kts 186°
2026-05-07 19:30 39.79277 -104.80880 11063 ft 284 kts 186°
2026-05-07 19:30 39.77341 -104.80987 11002 ft 273 kts 188°
2026-05-07 19:30 39.75490 -104.81186 10986 ft 261 kts 191°
2026-05-07 19:30 39.73714 -104.81420 10991 ft 253 kts 191°
2026-05-07 19:31 39.71964 -104.81664 10990 ft 253 kts 192°
2026-05-07 19:31 39.70216 -104.81924 11025 ft 254 kts 191°
2026-05-07 19:31 39.68450 -104.82167 11006 ft 254 kts 191°
2026-05-07 19:31 39.66689 -104.82403 10969 ft 253 kts 191°
2026-05-07 19:32 39.64970 -104.82638 10784 ft 252 kts 191°
2026-05-07 19:32 39.63224 -104.82895 10572 ft 252 kts 192°
2026-05-07 19:32 39.61490 -104.83140 10358 ft 251 kts 190°
2026-05-07 19:32 39.59732 -104.83152 10128 ft 257 kts 173°
2026-05-07 19:33 39.58063 -104.82311 9915 ft 261 kts 149°
2026-05-07 19:33 39.56740 -104.80672 9607 ft 267 kts 125°
2026-05-07 19:33 39.55996 -104.78493 9390 ft 265 kts 103°
2026-05-07 19:33 39.55653 -104.76154 9170 ft 264 kts 98°
2026-05-07 19:34 39.55366 -104.73818 8970 ft 262 kts 96°
2026-05-07 19:34 39.55411 -104.71504 8854 ft 252 kts 76°
2026-05-07 19:34 39.55847 -104.69350 8739 ft 244 kts 64°
2026-05-07 19:34 39.56768 -104.67558 8453 ft 238 kts 38°
2026-05-07 19:35 39.58148 -104.66439 8074 ft 233 kts 14°
2026-05-07 19:35 39.59709 -104.66120 7795 ft 221 kts 353°
2026-05-07 19:35 39.61199 -104.66260 7756 ft 212 kts 351°
2026-05-07 19:35 39.62671 -104.66302 7680 ft 211 kts 358°
2026-05-07 19:36 39.64103 -104.66272 7693 ft 206 kts 356°
2026-05-07 19:36 39.65520 -104.66258 7584 ft 202 kts 355°
2026-05-07 19:36 39.66930 -104.66250 7473 ft 201 kts 356°
2026-05-07 19:36 39.68336 -104.66236 7315 ft 204 kts 356°
2026-05-07 19:37 39.69736 -104.66203 7196 ft 198 kts 356°
2026-05-07 19:37 39.71100 -104.66161 7051 ft 194 kts 355°
2026-05-07 19:37 39.72437 -104.66131 6868 ft 190 kts 355°
2026-05-07 19:37 39.73744 -104.66135 6669 ft 185 kts 354°
2026-05-07 19:38 39.75008 -104.66120 6364 ft 179 kts 354°
2026-05-07 19:38 39.76198 -104.66126 6353 ft 157 kts 354°
2026-05-07 19:38 39.77217 -104.66147 6235 ft 138 kts 353°
2026-05-07 19:38 39.78133 -104.66131 6071 ft 127 kts 354°
2026-05-07 19:39 39.79041 -104.66042 5954 ft 136 kts 354°
2026-05-07 19:39 39.79959 -104.66046 5824 ft 129 kts 350°
2026-05-07 19:39 39.80871 -104.66069 5678 ft 133 kts 348°
2026-05-07 19:39 39.81785 -104.66060 5531 ft 130 kts 350°
2026-05-07 19:40 39.82715 -104.66051 5400 ft 136 kts 351°
2026-05-07 19:40 39.83650 -104.66046 5362 ft 124 kts 359°
2026-05-07 19:40 39.84398 -104.66048 5365 ft 91 kts
2026-05-07 19:40 39.84936 -104.66046 5362 ft 70 kts
2026-05-07 19:41 39.85242 -104.66121 5362 ft 28 kts 331°
2026-05-07 19:41 39.85411 -104.66229 5363 ft 25 kts 345°
2026-05-07 19:41 39.85556 -104.66234 5364 ft 17 kts
2026-05-07 19:41 39.85580 -104.66235 5364 ft 0 kts 339°
2026-05-07 19:42 39.85583 -104.66253 5363 ft 6 kts 283°
2026-05-07 19:42 39.85582 -104.66340 5365 ft 14 kts 273°
2026-05-07 19:42 39.85585 -104.66486 5365 ft 18 kts 271°
2026-05-07 19:42 39.85585 -104.66611 5365 ft 15 kts 270°
2026-05-07 19:43 39.85586 -104.66760 5365 ft 15 kts 271°
2026-05-07 19:43 39.85587 -104.66888 5365 ft 11 kts 271°
2026-05-07 19:43 39.85613 -104.66995 5365 ft 15 kts 321°
2026-05-07 19:43 39.85662 -104.67063 5365 ft 14 kts 273°
2026-05-07 19:44 39.85730 -104.67148 5364 ft 16 kts 355°
2026-05-07 19:44 39.85799 -104.67147 5365 ft 3 kts
2026-05-07 19:44 39.85805 -104.67147 5365 ft 0 kts